ASNARO

Last updated on Tue Oct 15 2024 00:02:24 GMT+0000 (Coordinated Universal Time)

1 40298U 14070A 24288.53641752 .00020930 00000+0 98819-3 0 9993 2 40298 97.4031 7.8406 0008962 160.0676 200.0911 15.19426247551279
UTC large
Height (km)
Speed (km/s)
/
Latitude / Longitude
Inclination (degrees)
Orbital Period (minutes)
Azimuth
Elevation
Range (km)
Doppler Factor

Next 0 passes for location: London (51.5072 / 0.1276)

Sorry there are no passes over London.